Location: ??
(35.5672°N, 139.6509°E)
Time: 12:27:25
(UTC+00:00)

Cosmos 2322 - Pass Details

Date: 03 August 2024
Orbit: 841 x 852 km, 71.0° (Epoch: 08 September)

Event Time Altitude Azimuth Distance (km) Brightness Sun altitude
Exits shadow 17:27:05 51° 165° (SSE) 1,053 3.9 -25.1°
Maximum altitude 17:28:22 67° 108° (ESE) 914 3.8 -24.9°
Drops below altitude 10° 17:33:58 10° 27° (NNE) 2,466 7.1 -24.1°
Sets 17:36:26 0° 25° (NNE) 3,403 8.0 -23.8°
